Regional Weather Roundup
Issued by NWS Kansas City/Pleasant Hill, MO

Home | Current Version | Previous Version | Text Only | Print | Product List | Glossary On
Versions: 1 2 3 4 5 6 7 8 9 10 11 12 13 14 15 16 17 18 19 20 21 22 23 24 25 26 27 28 29 30 31 32 33 34 35 36 37 38 39 40 41 42 43 44 45 46 47 48 49 50
111
ASUS43 KEAX 220010
RWREAX

WEATHER ROUNDUP FOR EASTERN KANSAS AND NORTHWEST MISSOURI
NATIONAL WEATHER SERVICE KANSAS CITY/PLEASANT HILL MO
700 PM CDT MON AUG 21 2017

KSZ040-057-103>105-MOZ028-029-037-043-220100-
...KANSAS CITY METROPOLITAN AREA...

CITY           SKY/WX    TMP DP  RH WIND       PRES   REMARKS
K.C. INTL      PTSUNNY   77  73  87 SE7       29.95F
6HR MIN TEMP:  72; 6HR MAX TEMP:  79; 6HR PCP:  1.32;

K.C. DOWNTOWN  MOSUNNY   81  75  82 SE5       29.94F
6HR MIN TEMP:  73; 6HR MAX TEMP:  82; 6HR PCP:  0.19;

LEES SUMMIT    SUNNY     80  75  84 SE9       29.97F
6HR MIN TEMP:  74; 6HR MAX TEMP:  80;

OLATHE - IXD   MOSUNNY   86  75  69 S9        29.95F HX  95
6HR MIN TEMP:  81; 6HR MAX TEMP:  89;

OLATHE - OJC   MOSUNNY   83  77  82 SE6       29.96F HX  92
6HR MIN TEMP:  78; 6HR MAX TEMP:  87;

LAWRENCE       MOSUNNY   88  76  67 S9        29.91F HX  99

$$

MOZ001>008-011>017-020>025-030>033-038>040-044>046-053-054-220100-
...NORTHERN AND CENTRAL MISSOURI...

CITY           SKY/WX    TMP DP  RH WIND       PRES   REMARKS
ST. JOSEPH     TSTM      76  74  93 SW9       29.95F
6HR MIN TEMP:  76; 6HR MAX TEMP:  84; 6HR PCP:  0.02;

WARRENSBURG    SUNNY     79  72  78 E9        29.97F
WHITEMAN AFB   MOSUNNY   80  80 100 SE7       29.98F
6HR MIN TEMP:  78; 6HR MAX TEMP:  89;

CLINTON        SUNNY     86  77  74 S7        30.00S HX  97
SEDALIA        CLOUDY    79  72  79 NE8       30.03R
6HR MIN TEMP:  79; 6HR MAX TEMP:  91;

WARSAW         NOT AVBL
CHILLICOTHE      N/A     72  71  97 S6        29.99F
6HR MIN TEMP:  72; 6HR MAX TEMP:  76; 6HR PCP:  0.08;

KIRKSVILLE     CLOUDY    74  50  43 S3        30.00F
6HR MIN TEMP:  71; 6HR MAX TEMP:  79; 6HR PCP:  0.20;


$$

MOZ041-047>049-056>058-063>065-088>090-097-220100-
...EASTERN AND SOUTHERN MISSOURI...

CITY           SKY/WX    TMP DP  RH WIND       PRES   REMARKS
ST. LOUIS INTL MOCLDY    86  74  67 E9        30.02F HX  94
6HR MIN TEMP:  85; 6HR MAX TEMP:  92;

SPIRIT OF STL  PTCLDY    86  75  69 E3        30.00S HX  95
COLUMBIA       CLOUDY    85  75  72 W3        30.03R HX  93
JEFFERSON CITY CLOUDY    87  77  72 CALM      30.01R HX  99
ROLLA          PTCLDY    84  74  71 S5        30.06S HX  91
OSAGE BEACH    CLEAR     88  75  65 S3        30.04R HX  97
SPRINGFIELD    SUNNY     85  75  72 S6        30.05S HX  93
BRANSON        MOSUNNY   84  73  70 CALM      30.08S HX  91
JOPLIN         SUNNY     89  74  60 S14       30.02F HX  98
WEST PLAINS    CLEAR     86  71  60 S8        30.09S HX  91

$$

IAZ060-094-KSZ022-034>040-054-083-096-NEZ052-066-093-220100-
...KANSAS...SOUTHEAST NEBRASKA AND IOWA...

CITY           SKY/WX    TMP DP  RH WIND       PRES   REMARKS
TOPEKA         MOSUNNY   90  76  63 S9        29.90F HX 101
6HR MIN TEMP:  80; 6HR MAX TEMP:  92; 6HR PCP:  0.01;

MANHATTAN      TSTM      80  73  79 S7        29.93S
EMPORIA        CLOUDY    86  74  67 S13       29.95F HX  94
CHANUTE        SUNNY     87  75  67 S10       29.98F HX  96
WICHITA        PTSUNNY   91  69  48 S15       29.94F HX  96
OMAHA          CLOUDY    81  72  74 E13       29.93F
LINCOLN        CLOUDY    82  71  69 S12       29.91F
FALLS CITY     CLOUDY    78  75  90 S12       29.91F
LAMONI         PTSUNNY   75  70  84 S9        29.97F
DES MOINES     TSTM      68  64  87 N17G25    29.99R FOG

$$





USA.gov is the U.S. government's official web portal to all federal, state and local government web resources and services.